When you browse on this site, cookies collect data to enhance your experience and personalize the content and advertising you see.
Visit our Privacy Policy to learn more. By continuing to use the site, you agree to this use of cookies and data.
  • In Österreich
  • Länderverzeichnis
  • Für 7 Tage
  • Wassertemperatur
  • Wetterkarte
  • News
  • Widgets
  • user-avatar
    Anmelden

    Stündliche Wetter Progreso de Obregón

    Heute, 15 November, Freitag

    Zeit Temperatur Niederschläge Wind Luftdruck Luftfeuchtigkeit
    00:00 +14°C° 0 mm 2 m/S 605 mmHg 88%
    01:00 +13°C° 0 mm 1 m/S 605 mmHg 89%
    02:00 +13°C° 0 mm 1 m/S 605 mmHg 89%
    03:00 +13°C° 0 mm 1 m/S 605 mmHg 89%
    04:00 +13°C° 0 mm 1 m/S 605 mmHg 88%
    05:00 +13°C° 0 mm 1 m/S 605 mmHg 88%
    06:00 +13°C° 0 mm 2 m/S 606 mmHg 87%
    07:00 +14°C° 0 mm 2 m/S 606 mmHg 87%
    08:00 +14°C° 0 mm 2 m/S 607 mmHg 86%
    09:00 +14°C° 0 mm 2 m/S 607 mmHg 83%
    10:00 +15°C° 0 mm 2 m/S 606 mmHg 80%
    11:00 +14°C° 0 mm 3 m/S 606 mmHg 77%
    12:00 +14°C° 0 mm 3 m/S 606 mmHg 76%
    13:00 +16°C° 0 mm 3 m/S 605 mmHg 75%
    14:00 +16°C° 0 mm 3 m/S 604 mmHg 73%
    15:00 +14°C° 0 mm 3 m/S 604 mmHg 76%
    16:00 +13°C° 0 mm 3 m/S 604 mmHg 79%
    17:00 +13°C° 0 mm 2 m/S 604 mmHg 81%
    18:00 +13°C° 0 mm 2 m/S 604 mmHg 83%
    19:00 +12°C° 0 mm 2 m/S 605 mmHg 85%
    20:00 +12°C° 0 mm 2 m/S 605 mmHg 86%
    21:00 +12°C° 0 mm 1 m/S 605 mmHg 86%
    22:00 +12°C° 0 mm 1 m/S 605 mmHg 86%
    23:00 +12°C° 0 mm 1 m/S 605 mmHg 85%

    Morgen, 16 November, Samstag

    Zeit Temperatur Niederschläge Wind Luftdruck Luftfeuchtigkeit
    00:00 +12°C° 0 mm 1 m/S 604 mmHg 85%
    01:00 +12°C° 0 mm 1 m/S 604 mmHg 85%
    02:00 +12°C° 0 mm 1 m/S 604 mmHg 85%
    03:00 +12°C° 0 mm 1 m/S 604 mmHg 86%
    04:00 +11°C° 0 mm 0 m/S 603 mmHg 86%
    05:00 +11°C° 0 mm 0 m/S 603 mmHg 87%
    06:00 +12°C° 0 mm 0 m/S 604 mmHg 84%
    07:00 +12°C° 0 mm 0 m/S 605 mmHg 80%
    08:00 +13°C° 0 mm 0 m/S 605 mmHg 77%
    09:00 +15°C° 0 mm 0 m/S 605 mmHg 72%
    10:00 +18°C° 0 mm 1 m/S 605 mmHg 66%
    11:00 +20°C° 0 mm 1 m/S 606 mmHg 61%
    12:00 +20°C° 0 mm 2 m/S 605 mmHg 59%
    13:00 +20°C° 0 mm 2 m/S 605 mmHg 57%
    14:00 +21°C° 0 mm 3 m/S 604 mmHg 55%
    15:00 +19°C° 0 mm 3 m/S 604 mmHg 61%
    16:00 +18°C° 0 mm 2 m/S 604 mmHg 66%
    17:00 +17°C° 0 mm 2 m/S 604 mmHg 72%
    18:00 +16°C° 0 mm 2 m/S 604 mmHg 77%
    19:00 +16°C° 0 mm 1 m/S 604 mmHg 82%
    20:00 +15°C° 0 mm 1 m/S 604 mmHg 87%
    21:00 +15°C° 0 mm 1 m/S 603 mmHg 87%
    22:00 +14°C° 0 mm 1 m/S 603 mmHg 87%
    23:00 +13°C° 0 mm 0 m/S 603 mmHg 88%

    übermorgen, 17 November, Sonntag

    Zeit Temperatur Niederschläge Wind Luftdruck Luftfeuchtigkeit
    00:00 +13°C° 0 mm 0 m/S 603 mmHg 89%
    01:00 +12°C° 0 mm 0 m/S 602 mmHg 91%
    02:00 +12°C° 0 mm 0 m/S 602 mmHg 93%
    03:00 +12°C° 0 mm 0 m/S 602 mmHg 93%
    04:00 +12°C° 0 mm 0 m/S 602 mmHg 93%
    05:00 +12°C° 0 mm 0 m/S 602 mmHg 93%
    06:00 +13°C° 0 mm 0 m/S 602 mmHg 86%
    07:00 +15°C° 0 mm 0 m/S 603 mmHg 79%
    08:00 +16°C° 0 mm 0 m/S 604 mmHg 73%
    09:00 +19°C° 0 mm 1 m/S 604 mmHg 66%
    10:00 +21°C° 0 mm 1 m/S 604 mmHg 59%
    11:00 +21°C° 0 mm 2 m/S 605 mmHg 52%
    12:00 +23°C° 0.1 mm 2 m/S 604 mmHg 50%
    13:00 +23°C° 0.1 mm 2 m/S 604 mmHg 49%
    14:00 +23°C° 0.1 mm 2 m/S 603 mmHg 47%
    15:00 +21°C° 0.1 mm 2 m/S 603 mmHg 53%
    16:00 +20°C° 0.1 mm 2 m/S 603 mmHg 60%
    17:00 +19°C° 0.1 mm 2 m/S 603 mmHg 67%
    18:00 +18°C° 0.2 mm 2 m/S 603 mmHg 71%
    19:00 +18°C° 0.2 mm 2 m/S 603 mmHg 75%
    20:00 +18°C° 0.2 mm 1 m/S 604 mmHg 79%
    21:00 +18°C° 0 mm 1 m/S 603 mmHg 80%
    22:00 +18°C° 0 mm 1 m/S 603 mmHg 81%
    23:00 +16°C° 0 mm 1 m/S 603 mmHg 82%

    18 November, Montag

    Zeit Temperatur Niederschläge Wind Luftdruck Luftfeuchtigkeit
    00:00 +15°C° 0 mm 0 m/S 603 mmHg 84%
    01:00 +14°C° 0 mm 0 m/S 602 mmHg 85%
    02:00 +14°C° 0 mm 0 m/S 602 mmHg 87%
    03:00 +14°C° 0 mm 0 m/S 602 mmHg 86%
    04:00 +14°C° 0 mm 0 m/S 602 mmHg 86%
    05:00 +14°C° 0 mm 0 m/S 602 mmHg 85%
    06:00 +15°C° 0 mm 0 m/S 603 mmHg 79%
    07:00 +16°C° 0 mm 0 m/S 603 mmHg 73%
    08:00 +17°C° 0 mm 0 m/S 604 mmHg 67%
    09:00 +18°C° 0 mm 0 m/S 604 mmHg 61%
    10:00 +21°C° 0 mm 1 m/S 604 mmHg 55%
    11:00 +23°C° 0 mm 1 m/S 604 mmHg 49%
    12:00 +23°C° 0 mm 1 m/S 604 mmHg 48%
    13:00 +24°C° 0 mm 2 m/S 603 mmHg 46%
    14:00 +24°C° 0 mm 2 m/S 603 mmHg 45%
    15:00 +23°C° 0.2 mm 2 m/S 603 mmHg 52%
    16:00 +21°C° 0.2 mm 3 m/S 603 mmHg 60%
    17:00 +20°C° 0.2 mm 3 m/S 602 mmHg 68%
    18:00 +19°C° 0.1 mm 3 m/S 603 mmHg 74%
    19:00 +18°C° 0.1 mm 2 m/S 603 mmHg 81%
    20:00 +18°C° 0.1 mm 1 m/S 603 mmHg 87%
    21:00 +16°C° 0.1 mm 1 m/S 603 mmHg 87%
    22:00 +16°C° 0.1 mm 1 m/S 603 mmHg 86%
    23:00 +16°C° 0.1 mm 1 m/S 603 mmHg 86%

    19 November, Dienstag

    Zeit Temperatur Niederschläge Wind Luftdruck Luftfeuchtigkeit
    00:00 +16°C° 0.1 mm 1 m/S 602 mmHg 85%
    01:00 +16°C° 0.1 mm 1 m/S 602 mmHg 85%
    02:00 +15°C° 0.1 mm 0 m/S 602 mmHg 84%
    03:00 +15°C° 0.1 mm 0 m/S 602 mmHg 84%
    04:00 +15°C° 0.1 mm 0 m/S 602 mmHg 84%
    05:00 +15°C° 0.1 mm 0 m/S 603 mmHg 84%
    06:00 +16°C° 0 mm 0 m/S 603 mmHg 81%
    07:00 +18°C° 0 mm 1 m/S 604 mmHg 78%
    08:00 +19°C° 0 mm 1 m/S 604 mmHg 75%
    09:00 +20°C° 0 mm 1 m/S 604 mmHg 71%
    10:00 +20°C° 0 mm 2 m/S 604 mmHg 66%
    11:00 +21°C° 0 mm 2 m/S 604 mmHg 62%
    12:00 +21°C° 0.2 mm 3 m/S 604 mmHg 62%
    13:00 +21°C° 0.2 mm 3 m/S 603 mmHg 62%
    14:00 +21°C° 0.2 mm 4 m/S 603 mmHg 62%
    15:00 +20°C° 0.4 mm 3 m/S 603 mmHg 67%
    16:00 +19°C° 0.4 mm 3 m/S 602 mmHg 72%
    17:00 +17°C° 0.4 mm 2 m/S 602 mmHg 78%
    18:00 +17°C° 0 mm 2 m/S 602 mmHg 80%
    19:00 +16°C° 0 mm 1 m/S 603 mmHg 83%
    20:00 +16°C° 0 mm 1 m/S 603 mmHg 85%
    21:00 +16°C° 0 mm 1 m/S 603 mmHg 87%
    22:00 +14°C° 0 mm 0 m/S 603 mmHg 88%
    23:00 +14°C° 0 mm 0 m/S 602 mmHg 90%

    20 November, Mittwoch

    Zeit Temperatur Niederschläge Wind Luftdruck Luftfeuchtigkeit
    00:00 +14°C° 0 mm 0 m/S 602 mmHg 90%
    01:00 +14°C° 0 mm 0 m/S 602 mmHg 90%
    02:00 +13°C° 0 mm 0 m/S 602 mmHg 90%
    03:00 +13°C° 0 mm 0 m/S 602 mmHg 91%
    04:00 +13°C° 0 mm 0 m/S 602 mmHg 91%
    05:00 +13°C° 0 mm 0 m/S 602 mmHg 91%
    06:00 +14°C° 0 mm 0 m/S 602 mmHg 84%
    07:00 +18°C° 0 mm 1 m/S 603 mmHg 77%
    08:00 +19°C° 0 mm 1 m/S 604 mmHg 71%
    09:00 +21°C° 0 mm 1 m/S 604 mmHg 64%
    10:00 +22°C° 0 mm 1 m/S 604 mmHg 58%
    11:00 +24°C° 0 mm 1 m/S 604 mmHg 51%
    12:00 +24°C° 0 mm 1 m/S 604 mmHg 48%
    13:00 +25°C° 0 mm 2 m/S 604 mmHg 45%
    14:00 +26°C° 0 mm 2 m/S 604 mmHg 42%
    15:00 +24°C° 0 mm 2 m/S 603 mmHg 48%
    16:00 +23°C° 0 mm 2 m/S 603 mmHg 54%
    17:00 +20°C° 0 mm 2 m/S 603 mmHg 60%
    18:00 +21°C° 0 mm 1 m/S 603 mmHg 65%
    19:00 +20°C° 0 mm 1 m/S 603 mmHg 70%
    20:00 +20°C° 0 mm 1 m/S 603 mmHg 75%
    21:00 +19°C° 0 mm 1 m/S 603 mmHg 77%
    22:00 +17°C° 0 mm 0 m/S 603 mmHg 79%
    23:00 +16°C° 0 mm 0 m/S 603 mmHg 81%
    Mehr zeigen